Regional Weather Roundup
Issued by NWS Sterling, VA

Home | Current Version | Previous Version | Graphics & Text | Print | Product List | Glossary On
Versions: 1 2 3 4 5 6 7 8 9 10 11 12 13 14 15 16 17 18 19 20 21 22 23 24 25 26 27 28 29 30 31 32 33 34 35 36 37 38 39 40 41 42 43 44 45 46 47 48
000
ASUS41 KLWX 132010
RWRLWX

REGIONAL WEATHER ROUNDUP
NATIONAL WEATHER SERVICE BALTIMORE MD/WASHINGTON DC
300 PM EST SAT FEB 13 2016

Note: "FAIR" indicates few or no clouds below 12,000 feet
with no significant weather and/or obstructions to visibility.
 TC=TEMPERATURE CELSIUS

 * =Non NWS site. Station does not report precipitation (e.g. rain,
    snow, etc.), thunder, or fog.

DCZ001-MDZ009-015-VAZ040>042-051-053>054-132100-
WASHINGTON METRO

CITY           SKY/WX    TMP DP  RH WIND       PRES   REMARKS
WASHINGTON NAT PTSUNNY   22  -5  30 NW26G33   30.30R WCI   5
DULLES         PTSUNNY   20  -5  33 NW23G31   30.29S WCI   3
ANDREWS AFB    MOSUNNY   22  -2  35 NW21G33   30.26R WCI   6
FT BELVOIR     FAIR      23  -6  27 NW21G28   30.29S WCI   8
QUANTICO       PTSUNNY   25  -5  26 N22G29    30.32R WCI  10
LEESBURG*      PTSUNNY   21   1  42 NW21G32   30.30R WCI   6
MANASSAS*      MOSUNNY   21  -2  35 NW28G35   30.30S WCI   3
GAITHERSBURG*  PTSUNNY   16  -4  41 W20G26    30.29S WCI  -1

$$

MDZ006>007-011-014-132100-
BALTIMORE METRO

CITY           SKY/WX    TMP DP  RH WIND       PRES   REMARKS
BWI AIRPORT    PTSUNNY   19  -5  34 NW21G31   30.26R WCI   3
MD SCIENCE CTR   N/A     20  -7  30 MISG      30.30R
MARTIN STATE   PTSUNNY   21   0  39 W23G30    30.27R WCI   5
ANNAPOLIS      CLOUDY    21   3  45 NW23G30   30.27R WCI   5

$$

MDZ012-015-019>023-132100-
MARYLAND EASTERN SHORE

CITY           SKY/WX    TMP DP  RH WIND       PRES   REMARKS
OCEAN CITY     MOSUNNY   23  -2  33 NW22G32   30.20R WCI   8
SALISBURY      PTSUNNY   24  -2  32 NW20G37   30.23R WCI  10
EASTON*        PTSUNNY   21  -2  35 NW22G32   30.29R WCI   5

$$

MDZ017>025-132100-
SOUTHERN MARYLAND

CITY           SKY/WX    TMP DP  RH WIND       PRES   REMARKS
PATUXENT RIVER PTSUNNY   24  -5  27 W28G36    30.27R WCI   7
ST INIGOES     SUNNY     25  -3  29 W22G35    30.26R WCI  10
LEONARDTOWN*   NOT AVBL

$$

MDZ003>005-132100-
NORTH CENTRAL MARYLAND

CITY           SKY/WX    TMP DP  RH WIND       PRES   REMARKS
FREDERICK*     PTSUNNY   18   1  49 NW21G26   30.32R WCI   1
HAGERSTOWN APT CLOUDY    16  -2  45 NW23G32   30.25R WCI  -2
WESTMINSTER*   LGT SNOW  16   7  67 NW14G29   30.22R WCI   1

$$

MDZ501>502-132100-
WESTERN MARYLAND

CITY           SKY/WX    TMP DP  RH WIND       PRES   REMARKS
OAKLAND*       PTSUNNY    3  -8  60 W18G28    30.09S HAZE    WCI -17
CUMBERLAND*    SUNNY     18  -4  38 W5G29     30.34S

$$

VAZ025>031-132100-
SHENANDOAH VALLEY

CITY           SKY/WX    TMP DP  RH WIND       PRES   REMARKS
WINCHESTER*    CLOUDY    21  -4  33 W25G31    30.27S WCI   4
FRONT ROYAL*   FAIR      19  -6  32 NW16G25   30.27R WCI   5
LURAY*         FAIR      19  -6  32 W25G33    30.28R WCI   2
NEW MARKET*    MOCLDY    18  -7  33 W5G16     30.27R
STAUNTON*      FAIR      26  -8  22 NW14G22   30.25R WCI  14
WAYNESBORO*    FAIR      22 -15  18 NW10G21   30.20S WCI  11

$$

WVZ021-048>050-054>055-132100-
EASTERN WEST VIRGINIA PANHANDLE

CITY           SKY/WX    TMP DP  RH WIND       PRES   REMARKS
MARTINSBURG    CLOUDY    18  -4  37 W26G33    30.28R WCI  -1
PETERSBURG*    CLOUDY    17  -4  39 NW5G17    30.32R

$$

VAZ036>039-050-132100-
CENTRAL FOOTHILLS

CITY           SKY/WX    TMP DP  RH WIND       PRES   REMARKS
CHARLOTTESVILL FAIR      24  -9  23 NW10G21   30.27R WCI  14
CULPEPER*      FAIR      22  -7  27 W13G24    30.31R WCI  10
ORANGE*        FAIR      27  -6  24 W14G21    30.29R WCI  15
GORDONSVILLE*  FAIR      25  -7  24 NW8G18    30.28R WCI  16
WARRENTON*     PTSUNNY   26   1  33 W14G23    30.29R WCI  14

$$

VAZ055>057-132100-
NORTH AND CENTRAL PIEDMONT

CITY           SKY/WX    TMP DP  RH WIND       PRES   REMARKS
FREDERICKSBRG* FAIR      26  -3  29 NW14G29   30.29R WCI  14
STAFFORD*      FAIR      24  -8  24 NW15G29   30.33S WCI  12

$$

NCZ024-NYZ072-PAZ021-071-VAZ022-071-132100-
OTHER REGIONAL OBSERVATIONS

CITY           SKY/WX    TMP DP  RH WIND       PRES   REMARKS
NEW YORK CITY  MOSUNNY   17 -13  25 W16G32    30.12R WCI   2
PHILADELPHIA   PTSUNNY   19  -7  31 NW22G36   30.21R WCI   2
PITTSBURGH     FLURRIES  11  -4  51 W21G31    30.32S WCI  -8
ROANOKE        FAIR      22  -4  32 W16G31    30.30S WCI   8
RICHMOND       FAIR      29  -5  22 NW22G30   30.25S WCI  15
RALEIGH        MOSUNNY   33  -2  22 NW8G17    30.29S WCI  26

$$

ANZ530>537-132100-
MARINE OBSERVATIONS

STATION/POSITION TIME  TEMP    WIND        PRES
                       AIR SEA DIR/SP/G
                 (UTC) (F)     (DEG/KT/KT) (MB)
THOMAS PT LIGHT  2000   21 36  320/ 20/ 23 1025.4R
BALT KEY BRIDGE  1900   20     300/ 27/ 32 1023.6R
COVE POINT       1900   20     340/ 21/ 29 1024.9R
LEWISETTA        1900   24 36  320/ 19/ 24 1024.2F
SOLOMONS ISLAND  1900   23 38  300/ 15/ 20   N/A
PINEY POINT      1900          340/ 29/ 34   N/A

$$





USA.gov is the U.S. government's official web portal to all federal, state and local government web resources and services.